EHI
2 8 18 23 17 9 3 1 0 0 0 0 0 1 2 2 1 3 16 44 65 58 43 40 34 19 9 8 6 3 1 0 0 0 0 0 0 0 0 0 0 0 0 0 0 0 0 0 0
2 8 16 17 12 6 1 0 0 0 0 0 0 0 1 1 0 7 26 52 64 55 43 40 36 24 12 8 6 4 2 0 0 0 0 0 0 0 0 0 0 0 0 0 0 0 0 0 0
1 5 9 10 7 3 0 0 0 0 0 0 0 1 2 2 5 17 40 60 62 50 44 45 40 29 16 9 7 5 2 0 0 0 0 0 0 0 0 0 0 0 0 0 0 0 0 0 0
1 2 3 4 3 1 0 0 0 0 0 0 1 5 9 10 16 31 49 62 62 50 44 45 41 31 20 11 8 6 3 1 0 0 0 0 0 0 0 0 0 0 0 0 0 0 0 0 0
1 1 1 1 1 0 0 0 0 0 0 0 4 13 19 20 27 38 48 60 64 54 45 42 39 32 21 12 9 7 4 2 0 0 0 0 0 0 0 0 0 0 0 0 0 0 0 0 0
1 0 0 0 0 0 0 0 0 0 0 1 7 19 26 28 34 37 41 53 64 61 50 41 36 29 20 13 9 7 6 3 1 0 0 0 0 0 0 0 0 0 0 0 0 0 0 0 0
0 0 0 0 0 0 0 0 0 0 0 1 8 22 32 39 42 37 36 47 62 66 54 40 33 26 17 11 8 7 6 5 3 1 0 0 0 0 0 0 0 0 0 0 0 0 0 0 0
0 0 0 0 0 0 0 0 0 0 0 1 8 25 44 54 51 43 38 45 60 65 52 36 29 24 15 8 7 6 6 6 3 1 0 0 0 0 0 0 0 0 0 0 0 0 0 0 0
0 0 0 0 0 0 0 0 0 1 2 6 17 36 56 63 59 51 46 49 61 64 48 31 28 24 14 7 6 6 6 5 3 1 0 0 0 0 0 1 1 0 0 0 0 0 0 0 0
0 0 0 0 0 0 0 0 0 2 6 13 28 48 61 66 65 61 57 60 68 67 48 34 31 25 14 10 9 6 5 5 3 2 1 0 0 1 2 3 2 1 0 0 0 0 0 0 0
0 0 0 0 0 0 0 0 0 2 6 14 29 50 64 69 69 66 64 70 76 70 55 45 42 34 24 20 14 8 6 7 6 5 4 1 1 2 4 5 3 1 0 0 0 0 0 0 0
0 0 0 0 0 0 0 0 0 2 5 10 26 49 65 70 70 69 70 77 80 73 62 60 60 54 48 38 21 11 10 11 11 11 7 2 2 4 7 6 3 1 1 1 1 2 1 1 1
0 0 0 0 0 0 0 0 1 3 5 11 26 48 64 69 70 75 79 83 84 77 69 70 73 73 71 58 35 21 19 19 20 18 12 7 6 8 12 11 6 4 4 3 4 5 4 4 3
0 0 0 0 0 0 0 1 2 5 7 13 28 47 63 69 73 80 85 86 86 82 77 76 78 80 79 67 48 35 30 26 27 28 23 16 14 17 18 13 10 9 10 10 9 7 5 4 2
0 0 0 0 0 0 1 2 5 6 8 15 29 48 65 71 73 78 84 84 83 82 82 79 76 77 76 67 53 41 35 31 31 36 33 24 24 28 23 14 10 11 16 18 13 8 3 1 1
0 0 0 0 0 0 1 3 7 9 10 15 27 47 66 72 71 73 78 78 78 80 81 77 72 72 72 66 55 45 42 41 41 41 37 30 31 34 26 16 12 13 17 17 13 7 3 1 1
0 0 0 0 0 0 1 3 8 11 12 14 24 42 62 70 69 69 72 73 73 74 74 72 69 69 70 67 60 54 53 53 49 46 42 38 37 35 27 21 19 16 15 13 9 7 5 2 2
0 0 0 0 0 0 1 3 8 12 14 15 23 39 58 67 68 69 70 69 68 68 69 69 69 69 68 64 60 56 54 51 48 47 48 44 39 33 25 23 23 19 14 11 10 10 7 3 2
0 0 0 0 0 0 1 3 7 11 15 17 25 39 56 66 69 69 68 65 63 63 66 67 67 65 63 60 56 53 46 41 40 43 47 44 38 31 24 22 24 21 16 13 13 11 6 2 1
0 0 0 0 0 0 1 3 5 10 14 17 25 39 53 62 68 69 65 60 59 61 63 64 62 60 56 55 55 51 43 37 36 39 42 39 35 29 23 24 25 23 20 16 12 9 4 1 0
0 0 0 0 0 0 1 2 5 11 14 16 23 35 47 54 62 66 62 58 58 58 59 59 59 57 53 52 51 47 42 38 36 37 36 33 30 27 25 25 25 22 20 15 11 7 4 2 1
0 0 0 0 0 0 0 1 6 11 13 16 22 31 39 46 55 62 61 58 57 56 56 56 57 55 52 50 45 40 38 37 37 38 35 30 27 27 27 26 26 23 19 14 10 8 7 4 2
0 0 0 0 0 0 0 1 5 9 11 15 22 29 35 41 49 56 57 55 53 52 52 53 54 53 50 46 41 38 37 36 37 38 37 32 28 29 30 30 29 26 21 17 14 13 11 8 6
0 0 0 0 0 0 0 1 3 6 8 13 21 28 34 38 44 50 53 51 49 48 49 50 50 50 46 41 38 36 35 33 33 34 33 31 28 30 33 32 32 29 25 22 21 19 15 12 10
0 0 0 0 0 0 1 1 2 3 5 10 17 25 33 38 41 46 49 49 45 43 44 45 46 43 38 35 32 30 28 26 25 25 25 24 26 32 34 34 35 34 28 24 23 21 17 14 13
0 0 0 0 0 0 0 1 1 2 3 5 11 20 29 37 41 44 46 44 38 35 36 38 37 34 30 28 26 23 22 19 18 20 20 19 23 30 37 38 37 34 26 21 22 21 17 15 15
0 0 0 0 0 0 0 1 2 3 3 3 6 14 25 34 37 39 39 34 28 27 29 29 28 27 24 21 18 16 17 16 15 17 18 17 20 28 37 39 34 29 24 22 22 20 16 16 16
0 0 0 0 0 0 0 2 4 5 5 5 7 14 24 29 31 33 33 28 24 24 26 25 23 23 20 15 11 10 12 15 14 15 17 18 22 31 38 37 33 28 25 24 22 19 14 14 14
0 0 0 0 0 0 0 2 4 6 6 7 10 16 23 25 27 31 31 28 25 24 23 22 20 18 15 12 10 10 12 15 15 15 18 23 28 35 39 38 34 29 25 23 21 17 12 10 9
0 0 0 0 0 0 0 1 4 7 6 7 10 16 23 25 27 32 32 29 27 23 20 20 18 15 12 11 13 13 14 16 17 17 20 27 33 36 38 39 36 28 23 23 21 15 10 7 6
Wind_Speed
10 11 10 8 6 6 6 2 8 9 11 10 8 8 12 13 10 9 11 19 24 22 20 18 17 16 16 15 15 15 14 14 13 13 13 12 12 12 12 13 13 13 13 14 14 13 13 13 13
10 13 10 7 6 4 3 4 9 11 10 7 6 8 12 13 13 13 15 21 24 22 19 17 18 17 16 15 15 15 14 14 13 13 13 12 12 12 12 12 13 13 13 13 14 13 13 13 12
13 16 9 7 7 4 1 4 7 9 7 5 6 8 10 11 12 12 17 22 23 20 18 18 19 18 17 16 15 15 14 14 13 13 13 12 12 12 13 13 13 13 13 13 13 13 13 12 11
9 10 8 8 9 4 3 4 6 7 6 4 5 8 11 9 9 15 20 22 22 20 19 19 19 18 17 16 15 15 14 14 13 13 12 12 12 12 13 13 13 13 13 13 13 12 12 11 9
11 8 9 9 9 3 3 4 5 6 5 5 5 10 11 8 13 18 19 21 22 20 19 19 19 18 17 16 15 15 14 14 13 13 12 12 12 12 12 12 13 13 13 12 12 11 11 9 7
9 8 8 9 8 2 4 4 4 4 5 5 6 10 10 9 14 17 18 19 20 21 20 18 19 18 17 16 15 15 14 14 13 13 13 12 12 12 12 12 13 12 12 12 11 10 9 8 6
11 10 12 13 8 2 3 4 4 3 4 3 4 9 10 11 14 16 16 18 19 21 20 17 16 16 17 16 15 15 14 14 14 13 13 13 12 12 12 12 12 12 11 11 10 9 8 7 5
11 11 14 11 5 1 3 2 3 4 3 3 2 6 11 13 15 16 15 16 18 19 19 17 17 15 14 13 15 15 14 14 14 14 13 13 13 13 13 12 11 11 10 10 9 8 8 7 5
14 11 11 10 5 1 2 1 2 3 5 4 5 8 16 18 18 17 15 14 16 18 17 17 17 15 14 14 14 14 14 13 13 12 13 12 9 10 9 12 11 10 9 9 8 7 7 6 6
12 10 12 9 4 2 1 2 2 3 4 4 6 9 17 18 18 17 16 16 16 17 17 15 16 15 14 12 11 9 10 10 9 8 9 7 5 6 9 12 11 10 9 8 7 7 6 6 4
14 15 12 9 4 4 4 4 3 2 3 5 6 10 16 18 17 16 16 14 14 15 15 16 14 12 12 9 9 7 6 7 7 9 8 5 5 6 7 6 6 6 7 6 6 6 5 5 3
16 14 12 10 7 6 7 6 4 1 3 7 10 14 16 17 16 16 15 14 12 12 13 14 14 11 9 10 8 6 6 6 6 7 7 5 3 4 6 4 5 5 4 3 4 3 3 3 2
16 14 13 11 10 9 8 7 4 2 3 8 10 13 16 16 16 14 13 13 12 10 11 12 12 10 8 7 6 7 7 7 7 6 5 5 4 4 4 3 3 4 4 3 2 2 2 2 1
13 13 13 13 12 10 9 7 6 3 2 7 10 12 14 13 14 13 12 12 12 11 10 11 11 10 8 6 3 4 5 6 6 6 6 5 4 4 4 3 1 2 3 3 2 3 3 2 1
14 14 14 13 13 11 9 7 6 3 3 4 8 11 13 12 12 13 13 13 13 12 10 11 11 10 9 8 6 5 5 6 6 5 6 5 5 5 4 3 2 1 3 3 2 2 2 3 2
14 15 15 14 15 12 10 8 3 4 5 5 6 9 11 11 12 12 13 12 12 12 11 11 12 12 9 7 5 4 4 5 5 6 6 5 5 6 4 4 3 3 2 3 2 2 2 2 2
15 14 15 13 13 11 10 7 5 7 7 8 7 8 11 11 11 11 13 12 11 11 11 11 10 12 10 8 6 4 3 4 4 5 6 6 6 6 4 2 3 3 2 2 3 2 1 2 2
11 12 11 10 9 9 8 7 7 8 8 9 8 8 9 11 11 11 12 13 11 11 11 11 10 10 9 7 5 3 4 3 3 4 5 7 5 6 4 3 4 3 2 2 2 3 2 1 1
14 12 10 8 7 7 7 8 7 8 9 8 7 7 9 10 11 11 12 12 12 10 11 11 11 10 8 7 6 5 5 4 3 4 7 7 6 6 4 3 4 2 2 3 3 3 2 1 1
13 13 11 8 8 8 9 9 9 6 5 5 7 7 8 10 10 11 11 12 12 11 11 11 11 11 9 7 6 5 6 5 5 4 5 6 6 6 6 4 4 3 2 3 3 2 1 2 2
13 13 11 10 10 10 11 11 8 4 3 5 7 8 8 11 12 13 13 12 12 12 12 12 11 11 10 9 6 6 5 4 4 5 5 5 6 6 4 5 4 4 4 4 4 3 3 2 2
12 12 11 12 11 9 9 9 5 5 5 7 7 9 9 9 11 12 13 12 12 12 11 10 11 10 9 9 8 10 8 7 6 5 5 6 6 6 5 5 5 4 3 5 5 5 3 2 2
12 11 11 12 12 13 11 10 5 5 7 7 7 9 10 10 11 11 12 12 11 12 11 10 9 9 9 10 10 9 8 6 5 6 7 7 6 6 6 6 5 5 3 5 4 3 3 2 2
12 12 12 11 10 13 12 11 6 4 7 8 8 8 9 10 11 11 10 10 10 10 11 11 11 10 10 10 10 10 9 8 7 7 7 6 5 5 7 7 6 5 4 4 4 3 4 2 1
13 11 8 9 9 10 8 8 4 6 6 7 8 9 10 10 11 11 11 11 10 10 11 10 11 10 10 10 10 10 9 9 9 8 8 7 6 6 7 7 6 5 4 4 4 4 3 3 3
13 14 11 9 7 7 4 5 3 4 5 5 7 9 11 11 11 11 11 10 10 10 10 10 10 10 10 10 9 8 8 7 6 8 7 7 5 6 7 7 6 5 5 5 4 4 4 4 3
13 13 14 13 12 10 5 5 6 2 5 5 6 8 11 11 11 11 11 10 10 10 9 9 9 9 9 9 8 8 8 7 7 7 6 5 5 5 7 7 6 6 5 5 5 3 4 3 4
15 12 9 9 9 11 6 2 0 1 1 3 4 6 9 10 11 11 10 9 9 9 9 9 9 9 8 8 8 8 8 7 6 6 7 6 5 4 7 7 7 6 6 5 5 4 4 4 4
13 14 10 9 9 8 7 2 2 2 2 2 3 5 8 9 9 10 9 9 9 9 9 9 8 8 8 8 7 7 7 7 7 6 6 5 5 5 6 6 7 7 6 6 5 5 5 5 5
11 11 10 8 9 9 8 2 3 3 2 2 3 4 7 7 9 9 9 9 9 10 10 9 9 9 8 8 7 7 6 6 6 6 6 5 6 6 6 5 6 6 7 6 6 6 5 5 5
Wind_Direction
210 225 226 243 243 250 275 54 81 75 74 64 51 55 66 63 73 103 136 132 123 127 132 135 135 136 135 133 131 129 127 125 124 121 117 113 109 107 104 102 102 101 100 100 99 99 97 97 98
232 235 234 244 252 278 345 48 74 76 81 97 87 74 79 77 84 112 125 124 125 129 136 136 136 136 135 134 133 133 131 129 127 125 121 118 115 111 108 105 103 102 102 102 101 100 100 99 101
250 254 257 242 242 248 94 82 90 92 95 92 86 72 66 84 97 115 125 128 127 131 132 133 139 137 136 135 135 134 134 132 130 127 125 122 118 114 111 109 106 105 103 103 103 101 101 102 103
247 239 240 257 269 252 128 114 106 106 111 104 94 87 74 70 101 123 131 132 128 131 132 137 140 139 138 137 136 136 136 134 132 130 128 124 120 118 116 113 110 107 105 104 104 103 104 105 106
241 257 248 263 270 262 120 106 107 118 124 118 102 97 91 89 112 128 138 134 135 135 133 139 141 140 140 139 138 137 137 137 135 132 128 126 123 121 118 116 113 110 109 108 107 106 107 106 106
247 247 256 265 260 230 123 117 129 128 118 116 123 112 106 124 126 136 143 139 138 135 135 138 142 141 141 141 141 140 140 139 137 135 133 129 126 123 120 118 115 113 112 113 112 111 112 111 113
255 270 267 268 266 202 123 132 141 140 123 129 107 110 121 137 135 141 143 141 139 135 135 143 145 144 144 144 144 144 143 142 140 138 135 133 131 128 124 121 119 118 117 118 117 116 119 124 135
258 280 285 280 267 192 131 147 138 143 127 128 111 113 135 143 144 142 145 145 140 138 142 148 148 147 149 148 148 148 147 144 143 142 141 140 138 136 133 129 125 124 124 125 125 126 131 139 154
252 263 277 282 278 121 98 144 152 143 141 98 61 103 134 145 144 146 152 153 146 143 146 154 150 154 155 152 149 151 150 149 149 150 153 153 154 147 150 128 133 134 134 136 139 144 149 158 176
236 250 262 282 315 4 27 288 262 184 126 98 86 112 136 146 150 157 162 162 153 148 152 156 153 157 160 154 149 158 160 158 170 158 167 180 161 144 131 134 141 146 148 153 162 169 178 196 188
237 250 266 285 309 310 286 264 258 230 140 128 151 164 153 154 159 165 167 165 155 154 156 155 152 157 161 142 158 167 161 164 178 162 173 175 148 135 132 147 150 162 171 181 168 189 203 204 201
244 257 271 288 300 285 279 280 274 306 135 149 163 165 162 164 168 170 169 163 157 160 157 153 150 158 154 150 163 164 159 168 169 163 179 163 163 153 151 160 167 170 184 187 181 200 180 169 173
242 254 264 269 271 273 276 276 282 303 161 140 145 157 167 170 171 170 164 159 155 163 158 151 152 152 148 147 166 169 162 166 159 162 180 160 159 149 140 142 161 174 161 173 193 147 118 116 147
255 254 260 265 263 258 260 276 281 292 264 148 156 164 166 169 170 167 163 162 159 167 160 149 152 149 147 149 174 158 158 154 152 160 164 169 149 134 131 139 172 158 149 152 152 142 137 151 123
260 263 262 261 259 251 249 260 259 269 235 181 163 161 162 167 170 172 170 167 167 168 159 153 155 155 157 159 179 173 163 159 154 152 153 167 146 139 146 149 182 167 128 126 135 146 137 168 160
255 251 253 251 244 239 235 251 220 190 231 216 185 165 161 164 175 175 171 168 168 168 161 162 168 162 164 165 182 187 176 154 150 150 153 165 147 151 159 163 177 159 148 154 148 178 159 144 142
248 245 250 250 236 233 234 241 202 188 209 216 196 176 165 164 175 173 170 170 169 166 164 166 168 164 166 168 182 194 163 152 156 153 155 162 161 159 175 157 140 163 160 163 175 140 130 143 153
250 253 254 253 240 236 241 238 212 198 214 212 193 175 168 169 174 173 168 170 168 166 166 168 166 164 166 168 178 187 159 169 164 158 152 155 164 168 172 158 156 185 167 147 110 111 103 135 196
263 272 274 272 268 259 255 255 243 212 213 206 188 176 174 172 167 166 167 168 169 170 169 169 169 167 168 172 178 177 175 180 173 167 153 161 170 168 182 163 157 193 161 145 139 140 155 210 185
259 270 276 276 279 278 276 268 263 218 224 218 184 179 172 166 161 162 165 170 174 174 173 172 173 173 177 178 177 175 172 182 177 167 154 164 166 168 184 157 173 175 151 148 156 147 171 217 185
251 257 268 275 275 269 278 268 261 226 211 220 191 173 171 168 166 166 171 173 174 176 178 181 179 178 182 177 176 171 167 177 171 164 165 173 171 178 196 170 189 170 176 170 173 179 199 222 210
251 256 262 267 272 273 270 275 259 220 193 228 201 168 167 169 164 166 169 172 176 177 177 180 179 179 179 174 179 178 178 182 179 172 171 176 182 182 189 188 194 183 187 160 188 186 191 203 239
251 262 270 274 275 275 271 272 249 198 189 209 205 172 164 166 164 164 168 170 175 176 176 177 177 178 179 181 186 187 185 180 174 171 167 176 184 190 190 192 192 186 193 172 192 151 188 201 233
250 256 263 266 268 263 265 269 257 191 201 189 175 166 157 161 160 161 163 162 170 172 172 174 176 180 182 186 190 193 190 181 178 175 168 176 182 192 195 192 190 187 192 170 171 164 195 212 253
235 243 251 252 252 260 276 266 246 191 187 163 164 161 159 155 156 159 160 163 170 173 173 174 175 179 184 190 193 194 193 188 185 180 179 183 185 187 191 189 183 186 184 172 172 178 200 201 216
229 239 243 256 266 278 296 280 278 157 133 132 148 155 153 152 153 158 163 168 175 176 175 174 174 181 187 192 192 192 190 189 187 189 183 188 193 187 176 176 176 181 184 183 175 187 197 197 201
237 236 251 258 258 263 236 216 230 175 138 137 143 152 153 155 155 159 162 170 173 173 171 171 170 179 185 186 186 190 190 192 191 184 191 197 191 182 167 171 174 179 185 184 172 196 203 184 197
245 249 252 263 274 278 271 253 258 138 197 147 147 158 151 155 157 159 160 165 170 169 162 166 170 176 179 182 186 188 187 190 187 186 190 192 189 179 162 173 175 181 185 184 185 199 199 191 206
231 242 254 269 270 281 290 306 27 298 241 171 170 152 145 151 153 153 157 158 163 165 165 167 168 171 176 179 180 178 178 183 184 187 185 182 186 184 176 179 182 185 184 186 190 207 199 200 213
244 242 244 252 265 279 286 277 157 205 197 161 159 144 135 137 142 145 151 158 162 166 167 167 170 176 181 179 176 178 175 176 180 186 186 183 184 182 183 184 187 191 189 189 190 207 207 203 214